| time (UTC) | temp F | wind direction | speed MPH | gust MPH | rain 1hr in | rain 24hr in | rain mn in | humidity % | barometer mb |
| 20260507003030 | 36 | 196 | 1.0 | 4.0 | 0.04 | 0.71 | 0.71 | 78 | 1018.5 |
| 20260507001555 | 36 | 197 | 1.0 | 4.0 | 0.06 | 0.70 | 0.70 | 77 | 1018.3 |
| 20260507000025 | 36 | 185 | 2.0 | 4.0 | 0.07 | 0.69 | 0.69 | 77 | 1018.5 |
| 20260506234518 | 37 | 69 | 1.0 | 4.0 | 0.07 | 0.69 | 0.68 | 78 | 1018.3 |
| 20260506233011 | 37 | 129 | 1.0 | 4.0 | 0.08 | 0.67 | 0.66 | 77 | 1018.5 |
| 20260506231530 | 36 | 84 | 2.0 | 4.0 | 0.08 | 0.65 | 0.64 | 78 | 1018.7 |
| 20260506230033 | 36 | 62 | 2.0 | 4.0 | 0.08 | 0.63 | 0.62 | 82 | 1018.5 |
| 20260506224521 | 37 | 57 | 2.0 | 4.0 | 0.09 | 0.66 | 0.61 | 81 | 1018.7 |
| 20260506223017 | 35 | 190 | 1.0 | 2.0 | 0.08 | 0.63 | 0.57 | 81 | 1018.9 |
| 20260506221530 | 34 | 171 | 1.0 | 3.0 | 0.08 | 0.61 | 0.56 | 84 | 1019.0 |
| 20260506220034 | 35 | 160 | 2.0 | 4.0 | 0.09 | 0.59 | 0.54 | 85 | 1019.2 |
| 20260506214523 | 35 | 325 | 1.0 | 3.0 | 0.10 | 0.59 | 0.52 | 82 | 1019.4 |
| 20260506213018 | 35 | 38 | 1.0 | 4.0 | 0.11 | 0.56 | 0.50 | 84 | 1019.4 |
| 20260506211520 | 36 | 340 | 1.0 | 3.0 | 0.13 | 0.55 | 0.48 | 82 | 1019.5 |
| 20260506210046 | 35 | 343 | 1.0 | 3.0 | 0.16 | 0.52 | 0.45 | 83 | 1019.7 |
| 20260506204521 | 35 | 322 | 0.0 | 3.0 | 0.19 | 0.50 | 0.42 | 84 | 1019.7 |
| 20260506203020 | 35 | 50 | 1.0 | 3.0 | 0.19 | 0.46 | 0.38 | 85 | 1019.7 |
| 20260506201520 | 35 | 37 | 2.0 | 4.0 | 0.20 | 0.43 | 0.35 | 84 | 1019.9 |
| 20260506200014 | 36 | 55 | 1.0 | 5.0 | 0.15 | 0.37 | 0.28 | 83 | 1019.9 |
| 20260506194534 | 37 | 56 | 2.0 | 7.0 | 0.11 | 0.34 | 0.23 | 84 | 1019.9 |
| 20260506193033 | 36 | 74 | 2.0 | 7.0 | 0.08 | 0.30 | 0.19 | 86 | 1020.0 |
| 20260506191521 | 35 | 30 | 4.0 | 9.0 | 0.05 | 0.26 | 0.15 | 88 | 1019.9 |
| 20260506190014 | 33 | 86 | 4.0 | 9.0 | 0.05 | 0.25 | 0.14 | 90 | 1020.1 |
| 20260506184537 | 32 | 54 | 4.0 | 9.0 | 0.04 | 0.25 | 0.12 | 89 | 1020.0 |
| 20260506183025 | 33 | 47 | 3.0 | 8.0 | 0.04 | 0.24 | 0.11 | 89 | 1020.0 |
| 20260506181534 | 33 | 126 | 2.0 | 5.0 | 0.04 | 0.23 | 0.10 | 87 | 1020.0 |
| 20260506180020 | 35 | 25 | 1.0 | 4.0 | 0.07 | 0.22 | 0.09 | 88 | 1019.9 |
| 20260506174516 | 34 | 36 | 2.0 | 6.0 | 0.08 | 0.23 | 0.08 | 89 | 1019.8 |
| 20260506173031 | 34 | 319 | 2.0 | 7.0 | 0.07 | 0.22 | 0.07 | 88 | 1019.8 |
| 20260506171534 | 34 | 329 | 1.0 | 5.0 | 0.05 | 0.20 | 0.05 | 88 | 1019.6 |
| 20260506170029 | 34 | 354 | 1.0 | 6.0 | 0.01 | 0.16 | 0.01 | 89 | 1019.4 |
| 20260506164538 | 34 | 89 | 1.0 | 5.0 | 0.00 | 0.16 | 0.00 | 89 | 1018.9 |
| 20260506163017 | 33 | 303 | 2.0 | 4.0 | 0.00 | 0.16 | 0.00 | 91 | 1018.9 |
| 20260506161531 | 32 | 353 | 2.0 | 6.0 | 0.00 | 0.16 | 0.00 | 91 | 1018.7 |
| 20260506160025 | 32 | 350 | 0.0 | 3.0 | 0.00 | 0.16 | 0.00 | 91 | 1018.4 |
| 20260506154523 | 32 | 350 | 0.0 | 1.0 | 0.00 | 0.16 | 0.00 | 92 | 1018.4 |
| 20260506153018 | 32 | 350 | 0.0 | 0.0 | 0.00 | 0.16 | 0.00 | 92 | 1018.3 |
| 20260506151516 | 32 | 350 | 0.0 | 0.0 | 0.00 | 0.16 | 0.00 | 91 | 1018.1 |
| 20260506150011 | 32 | 350 | 0.0 | 0.0 | 0.00 | 0.16 | 0.00 | 92 | 1017.8 |
| 20260506144529 | 32 | 350 | 0.0 | 0.0 | 0.00 | 0.19 | 0.00 | 92 | 1017.9 |
| 20260506143027 | 32 | 350 | 0.0 | 0.0 | 0.00 | 0.19 | 0.00 | 93 | 1017.8 |
| 20260506141529 | 31 | 350 | 0.0 | 0.0 | 0.00 | 0.19 | 0.00 | 94 | 1017.6 |
| 20260506140015 | 30 | 350 | 0.0 | 0.0 | 0.00 | 0.19 | 0.00 | 94 | 1017.6 |
| 20260506134513 | 30 | 350 | 0.0 | 0.0 | 0.00 | 0.20 | 0.00 | 94 | 1017.4 |
| 20260506133028 | 29 | 350 | 0.0 | 0.0 | 0.00 | 0.20 | 0.00 | 94 | 1017.2 |
| 20260506131527 | 29 | 350 | 0.0 | 0.0 | 0.00 | 0.20 | 0.00 | 94 | 1017.0 |
| 20260506130021 | 29 | 350 | 0.0 | 0.0 | 0.00 | 0.20 | 0.00 | 94 | 1016.4 |
| 20260506124518 | 28 | 350 | 0.0 | 0.0 | 0.00 | 0.25 | 0.00 | 94 | 1016.5 |
| 20260506123015 | 28 | 350 | 0.0 | 0.0 | 0.00 | 0.25 | 0.00 | 94 | 1016.2 |
| 20260506121530 | 28 | 350 | 0.0 | 0.0 | 0.00 | 0.25 | 0.00 | 94 | 1016.2 |
| 20260506120046 | 28 | 350 | 0.0 | 0.0 | 0.00 | 0.25 | 0.00 | 94 | 1015.8 |
| 20260506114520 | 28 | 350 | 0.0 | 0.0 | 0.00 | 0.30 | 0.00 | 94 | 1015.7 |
| 20260506113056 | 28 | 350 | 0.0 | 0.0 | 0.00 | 0.30 | 0.00 | 94 | 1015.1 |
| 20260506111529 | 28 | 350 | 0.0 | 0.0 | 0.00 | 0.30 | 0.00 | 94 | 1015.3 |
| 20260506110025 | 28 | 350 | 0.0 | 0.0 | 0.00 | 0.30 | 0.00 | 94 | 1015.3 |
| 20260506104531 | 28 | 350 | 0.0 | 0.0 | 0.00 | 0.30 | 0.00 | 94 | 1015.1 |
| 20260506103034 | 29 | 350 | 0.0 | 0.0 | 0.00 | 0.30 | 0.00 | 94 | 1014.9 |
| 20260506101531 | 29 | 350 | 0.0 | 0.0 | 0.00 | 0.30 | 0.00 | 94 | 1014.8 |
| 20260506100023 | 29 | 350 | 0.0 | 0.0 | 0.00 | 0.30 | 0.00 | 94 | 1014.6 |
| 20260506094523 | 29 | 350 | 0.0 | 0.0 | 0.00 | 0.30 | 0.00 | 94 | 1014.6 |
| 20260506093058 | 29 | 350 | 0.0 | 0.0 | 0.00 | 0.30 | 0.00 | 94 | 1014.3 |
| 20260506091530 | 29 | 350 | 0.0 | 0.0 | 0.00 | 0.30 | 0.00 | 94 | 1014.3 |
| 20260506090023 | 29 | 350 | 0.0 | 0.0 | 0.00 | 0.30 | 0.00 | 94 | 1014.3 |
| 20260506084536 | 29 | 350 | 0.0 | 0.0 | 0.00 | 0.30 | 0.00 | 94 | 1014.3 |
| 20260506083058 | 30 | 350 | 0.0 | 0.0 | 0.00 | 0.30 | 0.00 | 94 | 1014.4 |
| 20260506081536 | 30 | 350 | 0.0 | 0.0 | 0.00 | 0.30 | 0.00 | 94 | 1014.3 |
| 20260506073029 | 30 | 350 | 0.0 | 0.0 | 0.00 | 0.30 | 0.00 | 94 | 1014.1 |
| 20260506071529 | 30 | 350 | 0.0 | 0.0 | 0.00 | 0.30 | 0.00 | 94 | 1013.8 |
| 20260506061529 | 30 | 350 | 0.0 | 0.0 | 0.00 | 0.30 | 0.00 | 94 | 1013.3 |
| 20260506044521 | 30 | 197 | 0.0 | 0.0 | 0.00 | 0.37 | 0.30 | 94 | 1012.4 |
| 20260506043018 | 31 | 354 | 0.0 | 0.0 | 0.00 | 0.37 | 0.30 | 94 | 1012.3 |
| 20260506041532 | 31 | 354 | 0.0 | 0.0 | 0.00 | 0.37 | 0.30 | 94 | 1012.3 |
| 20260506040032 | 31 | 322 | 0.0 | 0.0 | 0.00 | 0.37 | 0.30 | 94 | 1012.2 |
| 20260506034526 | 31 | 28 | 0.0 | 0.0 | 0.00 | 0.40 | 0.30 | 94 | 1012.0 |
| 20260506033019 | 31 | 6 | 0.0 | 0.0 | 0.00 | 0.40 | 0.30 | 94 | 1011.5 |
| 20260506031514 | 31 | 6 | 0.0 | 2.0 | 0.00 | 0.40 | 0.30 | 94 | 1011.2 |
| 20260506030030 | 31 | 94 | 0.0 | 1.0 | 0.00 | 0.40 | 0.30 | 94 | 1010.7 |
| 20260506024526 | 31 | 216 | 0.0 | 1.0 | 0.00 | 0.40 | 0.30 | 94 | 1010.6 |
| 20260506023045 | 31 | 283 | 0.0 | 1.0 | 0.00 | 0.40 | 0.30 | 94 | 1009.9 |
| 20260506021530 | 31 | 67 | 0.0 | 2.0 | 0.00 | 0.40 | 0.30 | 94 | 1009.3 |
| 20260506020031 | 31 | 306 | 0.0 | 2.0 | 0.00 | 0.40 | 0.30 | 94 | 1009.2 |
| 20260506014529 | 31 | 125 | 0.0 | 3.0 | 0.00 | 0.40 | 0.30 | 94 | 1009.1 |
| 20260506013030 | 31 | 284 | 0.0 | 2.0 | 0.00 | 0.40 | 0.30 | 94 | 1008.7 |
| 20260506011515 | 31 | 263 | 0.0 | 2.0 | 0.00 | 0.40 | 0.30 | 94 | 1008.3 |
| 20260506010015 | 31 | 254 | 0.0 | 3.0 | 0.00 | 0.40 | 0.30 | 94 | 1008.2 |
| 20260506004530 | 32 | 329 | 1.0 | 2.0 | 0.00 | 0.40 | 0.30 | 94 | 1008.0 |